[[{"header":{"parameterUnit":"m.s-1","parameterCategory":1,"la1":30.2991,"la2":30.254,"lo1":-89.0895,"lo2":-89.0444,"dy":0.0017,"dx":0.0017,"nx":28,"ny":28,"refTime":"2023-11-16T03:00:00:Z","depth":0,"parameterNumber":2,"parameterNumberName":"U-component_of_WINDS"},"data":[0,0,0,0,0,0,0,0,0,0,0,0,0,0,0,0,0,0,0,0,0,0,0,0,0,0,0,0,0,0,0,0,0,0,0,0,0,0,0,0,0,0,0,0,0,0,0,0,0,0,0,0,0,0,0,0,0,0,1.3948,1.395,0,1.408,1.4082,1.4083,1.4098,1.4096,1.4095,1.4094,1.4229,1.4233,1.4238,0,0,0,0,0,0,0,0,0,0,0,0,0,1.3712,1.3716,1.3948,1.395,1.3952,1.408,1.4082,1.4083,1.4098,1.4096,1.4095,1.4093,1.4227,1.4233,1.4238,0,0,0,0,0,0,0,0,0,0,0,0,0,1.3826,1.3717,1.3948,1.3974,1.3978,1.4079,1.4082,1.4084,1.4098,1.4096,1.4094,1.4092,1.4225,1.4232,1.4239,1.4324,0,0,1.4261,1.4264,0,0,0,0,0,0,0,0,1.3819,1.3835,1.3969,1.3973,1.3977,1.407,1.4048,1.4164,1.4099,1.4053,1.4094,1.4091,1.4178,1.4189,1.4218,1.433,1.4336,1.4262,1.4266,1.4269,1.4272,0,0,0,0,0,0,0,1.3811,1.3829,1.4,1.3971,1.3976,1.398,1.3994,1.407,1.4125,1.4056,1.4058,1.4073,1.4179,1.4211,1.4221,1.4338,1.4262,1.4268,1.4273,1.4276,1.453,1.4532,0,0,0,0,0,0,1.3798,1.3822,1.3996,1.4004,1.3892,1.3986,1.4002,1.4042,1.4124,1.4134,1.4075,1.4073,1.4199,1.4212,1.4226,1.4332,1.4269,1.4276,1.428,1.4527,1.453,1.4533,0,0,0,0,0,0,1.3793,1.3814,1.3991,1.3914,1.3937,1.3992,1.4038,1.4046,1.4077,1.4138,1.4148,1.4097,1.4198,1.4216,1.43,1.4337,1.4279,1.4286,1.4524,1.4528,1.4531,1.4545,0,0,0,0,0,0,1.3786,1.3812,1.3844,1.3914,1.3941,1.4062,1.404,1.405,1.409,1.4089,1.4161,1.4171,1.4198,1.4289,1.4307,1.4346,1.4292,1.4521,1.4526,1.453,1.4541,1.4548,1.4554,0,0,0,0,0,1.3778,1.3841,1.3845,1.3866,1.3982,1.4064,1.408,1.411,1.4093,1.4126,1.4165,1.4168,1.433,1.4298,1.4318,1.436,1.4519,1.4525,1.453,1.4538,1.4547,1.4554,0,0,0,0,0,0,1.3773,1.3851,1.3856,1.3944,1.3998,1.4067,1.4109,1.4117,1.4177,1.4174,1.4209,1.4225,1.4309,1.4342,1.4305,1.4447,1.4423,1.4433,1.4422,1.4431,1.4437,1.4428,1.4298,0,0,0,0,0,1.3782,1.3842,1.3907,1.3979,1.4006,1.4053,1.409,1.4109,1.4166,1.4188,1.4234,1.4289,1.4353,1.4393,1.4455,1.4546,1.4563,1.4585,1.4592,1.4597,1.4605,1.4659,1.467,1.4551,1.4551,1.455,0,0,1.3801,1.3852,1.3887,1.3979,1.4023,1.4086,1.4072,1.4138,1.4185,1.4198,1.4282,1.4317,1.4381,1.447,1.4511,1.4501,1.4642,1.4604,1.4607,1.4613,1.4666,1.4677,1.4687,1.4554,1.4554,1.4553,0,0,1.3869,1.3912,1.3978,1.4023,1.409,1.4121,1.4137,1.4206,1.423,1.4314,1.4327,1.4384,1.4491,1.4538,1.4575,1.4664,1.467,1.4683,1.4718,1.477,1.4779,1.4788,1.4822,1.4833,1.4691,1.4691,1.4691,0,1.3885,1.398,1.4011,1.4078,1.4119,1.4135,1.4203,1.4245,1.4328,1.4357,1.4343,1.4482,1.4526,1.4627,1.4649,1.4678,1.4699,1.4675,1.4775,1.4784,1.4793,1.4826,1.4838,1.4692,1.4692,1.4692,1.4692,0,1.3997,1.4063,1.4108,1.4189,1.4236,1.4302,1.4345,1.4388,1.4404,1.4438,1.4525,1.4579,1.4653,1.4678,1.4693,1.4783,1.4775,1.4768,1.4744,1.4805,1.4837,1.4849,1.4694,1.4694,1.4693,1.4693,0,0,1.4064,1.4164,1.418,1.4219,1.4295,1.4347,1.4416,1.4489,1.4526,1.4584,1.4644,1.4736,1.4732,1.4775,1.4795,1.4841,1.4911,1.4829,1.4832,1.4845,1.5017,1.5022,1.5036,1.4916,1.4918,1.492,1.5012,0,1.4142,1.4265,1.4297,1.4402,1.4464,1.4482,1.4542,1.4596,1.463,1.4689,1.4726,1.4792,1.4779,1.4806,1.4852,1.4893,1.4947,1.4887,1.4973,1.4976,1.4958,1.5052,1.5057,1.5141,1.5024,1.5026,1.5028,0,1.4249,1.431,1.4422,1.4493,1.4521,1.4574,1.4646,1.4701,1.4764,1.4785,1.4835,1.4852,1.4926,1.4898,1.5002,1.4961,1.4998,1.5024,1.5028,1.5038,1.5006,1.5066,1.5168,1.5182,1.5047,1.5046,1.5044,0,1.4289,1.44,1.4482,1.4514,1.4598,1.4636,1.4673,1.4734,1.4777,1.4839,1.4868,1.4938,1.4977,1.5031,1.5068,1.5044,1.517,1.5144,1.5191,1.519,1.5217,1.5215,1.5328,1.5239,1.5239,1.5238,1.5238,0,1.4374,1.4442,1.4502,1.4552,1.463,1.4666,1.4743,1.478,1.4835,1.4894,1.4913,1.4968,1.5012,1.5074,1.5103,1.5186,1.5203,1.5223,1.5231,1.5223,1.522,1.5248,1.5244,1.5242,1.5241,1.524,1.524,0,1.4432,1.4474,1.4565,1.4639,1.4659,1.4713,1.4776,1.4827,1.4862,1.4937,1.4957,1.5012,1.5086,1.5128,1.522,1.524,1.5334,1.5337,1.5313,1.5316,1.5361,1.5357,1.5498,1.5519,1.5414,1.5414,1.5415,0,1.4484,1.4537,1.4617,1.4658,1.4696,1.4762,1.4807,1.4846,1.4892,1.4969,1.5011,1.5086,1.5148,1.5266,1.5315,1.5387,1.5393,1.5438,1.5404,1.5396,1.5397,1.5394,1.54,1.5444,1.5445,1.5445,1.5446,0,1.4572,1.4591,1.4655,1.4727,1.478,1.4839,1.4897,1.493,1.4978,1.5029,1.5106,1.5155,1.5251,1.5326,1.5403,1.5441,1.5453,1.5456,1.5471,1.5464,1.5449,1.546,1.533,1.5453,1.5452,1.5452,1.5451,1.5451,1.463,1.4679,1.4744,1.4815,1.4863,1.4918,1.497,1.5013,1.5077,1.5159,1.5178,1.5259,1.5323,1.5427,1.5469,1.5534,1.5526,1.5547,1.5553,1.5558,1.556,1.5438,1.5547,1.5547,1.5547,1.5547,1.5547,0,1.4721,1.4764,1.4829,1.4911,1.4968,1.4974,1.5039,1.5087,1.5158,1.5217,1.5279,1.5368,1.5442,1.5498,1.5574,1.5616,1.5623,1.5634,1.5632,1.5642,1.5562,1.5542,1.5627,1.5627,1.5627,1.5627,1.5627,1.5627,1.4775,1.4859,1.4887,1.4996,1.5039,1.512,1.5157,1.5208,1.5256,1.5355,1.5417,1.5453,1.5512,1.5593,1.5662,1.5676,1.5704,1.5716,1.5731,1.5656,1.5647,1.5639,1.5621,1.5721,1.5721,1.5806,1.5807,1.5807]},{"header":{"parameterUnit":"m.s-1","parameterCategory":1,"la1":30.2991,"la2":30.254,"lo1":-89.0895,"lo2":-89.0444,"dy":0.0017,"dx":0.0017,"nx":28,"ny":28,"refTime":"2023-11-16T03:00:00:Z","depth":0,"parameterNumber":3,"parameterNumberName":"V-component_of_WINDS"},"data":[0,0,0,0,0,0,0,0,0,0,0,0,0,0,0,0,0,0,0,0,0,0,0,0,0,0,0,0,0,0,0,0,0,0,0,0,0,0,0,0,0,0,0,0,0,0,0,0,0,0,0,0,0,0,0,0,0,0,-3.2131,-3.2131,0,-3.2129,-3.2129,-3.2129,-3.2115,-3.2115,-3.2114,-3.2114,-3.2105,-3.2106,-3.2106,0,0,0,0,0,0,0,0,0,0,0,0,0,-3.2119,-3.2119,-3.2131,-3.2131,-3.2131,-3.2129,-3.2129,-3.2129,-3.2115,-3.2115,-3.2114,-3.2114,-3.2105,-3.2106,-3.2106,0,0,0,0,0,0,0,0,0,0,0,0,0,-3.2121,-3.2119,-3.2131,-3.2124,-3.2123,-3.2129,-3.2129,-3.2129,-3.2115,-3.2115,-3.2114,-3.2114,-3.2105,-3.2106,-3.2106,-3.2116,0,0,-3.2106,-3.2106,0,0,0,0,0,0,0,0,-3.2121,-3.2121,-3.2125,-3.2125,-3.2124,-3.2122,-3.2122,-3.2124,-3.2115,-3.2118,-3.2114,-3.2113,-3.2111,-3.2111,-3.2111,-3.2116,-3.2115,-3.2106,-3.2106,-3.2106,-3.2106,0,0,0,0,0,0,0,-3.2121,-3.2121,-3.213,-3.2125,-3.2124,-3.212,-3.2119,-3.2122,-3.2117,-3.2118,-3.2117,-3.2117,-3.211,-3.2111,-3.2111,-3.2115,-3.2106,-3.2106,-3.2106,-3.2106,-3.2131,-3.2131,0,0,0,0,0,0,-3.2122,-3.2121,-3.213,-3.213,-3.2121,-3.212,-3.212,-3.2123,-3.2117,-3.2116,-3.2117,-3.2116,-3.2111,-3.2111,-3.211,-3.2124,-3.2106,-3.2106,-3.2106,-3.213,-3.2131,-3.2132,0,0,0,0,0,0,-3.2122,-3.2123,-3.213,-3.2125,-3.2126,-3.2121,-3.2124,-3.2123,-3.2124,-3.2117,-3.2115,-3.2119,-3.2111,-3.211,-3.2116,-3.2124,-3.2106,-3.2106,-3.213,-3.213,-3.2131,-3.2151,0,0,0,0,0,0,-3.2122,-3.2123,-3.2128,-3.2126,-3.2126,-3.2137,-3.2125,-3.2123,-3.2125,-3.2123,-3.2118,-3.2117,-3.211,-3.2116,-3.2116,-3.2123,-3.2106,-3.2129,-3.213,-3.2131,-3.2149,-3.2152,-3.2154,0,0,0,0,0,-3.2121,-3.2131,-3.2128,-3.2129,-3.2132,-3.2137,-3.2138,-3.2132,-3.2125,-3.213,-3.2126,-3.2117,-3.2123,-3.2116,-3.2116,-3.2124,-3.2128,-3.213,-3.2131,-3.2148,-3.2151,-3.2154,0,0,0,0,0,0,-3.2131,-3.2131,-3.2127,-3.2137,-3.2138,-3.2135,-3.214,-3.2135,-3.2136,-3.2134,-3.2125,-3.2124,-3.2131,-3.2128,-3.2121,-3.2135,-3.2124,-3.2126,-3.2137,-3.214,-3.2143,-3.2144,-3.2107,0,0,0,0,0,-3.2135,-3.2141,-3.2139,-3.2148,-3.2149,-3.2145,-3.2147,-3.2143,-3.2142,-3.2141,-3.2138,-3.2136,-3.2138,-3.2139,-3.2139,-3.2149,-3.2148,-3.2154,-3.2157,-3.2159,-3.216,-3.2167,-3.217,-3.2136,-3.2136,-3.2136,0,0,-3.2141,-3.2142,-3.2146,-3.215,-3.215,-3.2156,-3.2145,-3.215,-3.2154,-3.2141,-3.2148,-3.2145,-3.2142,-3.2151,-3.2154,-3.2148,-3.217,-3.2161,-3.2162,-3.2162,-3.2169,-3.2172,-3.2175,-3.2137,-3.2137,-3.2137,0,0,-3.2157,-3.2158,-3.2167,-3.2168,-3.217,-3.2168,-3.217,-3.2169,-3.2168,-3.2175,-3.2166,-3.217,-3.2172,-3.2172,-3.2171,-3.2191,-3.2183,-3.2191,-3.2205,-3.2211,-3.2214,-3.2217,-3.2225,-3.2228,-3.2192,-3.2193,-3.2193,0,-3.2165,-3.2175,-3.2171,-3.2179,-3.2181,-3.2174,-3.2183,-3.2183,-3.2184,-3.2185,-3.2179,-3.2185,-3.2182,-3.2192,-3.2197,-3.2197,-3.2199,-3.2192,-3.2214,-3.2217,-3.2219,-3.2227,-3.223,-3.2194,-3.2193,-3.2193,-3.2193,0,-3.2185,-3.2192,-3.2198,-3.2204,-3.2207,-3.2214,-3.2212,-3.2215,-3.2212,-3.221,-3.2218,-3.2215,-3.2216,-3.2218,-3.2213,-3.2227,-3.2224,-3.2216,-3.2205,-3.2223,-3.2231,-3.2234,-3.2195,-3.2195,-3.2194,-3.2194,0,0,-3.2204,-3.221,-3.2213,-3.2216,-3.2219,-3.2224,-3.2232,-3.2236,-3.224,-3.2241,-3.2248,-3.2252,-3.2246,-3.2246,-3.2241,-3.2247,-3.2265,-3.2239,-3.2239,-3.2245,-3.2283,-3.2289,-3.2293,-3.226,-3.2261,-3.2261,-3.2284,0,-3.222,-3.2237,-3.2236,-3.225,-3.2258,-3.2252,-3.2259,-3.2261,-3.226,-3.2265,-3.2263,-3.2267,-3.2258,-3.2259,-3.2265,-3.2262,-3.2273,-3.226,-3.2266,-3.2266,-3.2268,-3.2297,-3.2303,-3.2324,-3.2286,-3.2287,-3.2287,0,-3.2241,-3.2247,-3.2264,-3.2269,-3.2272,-3.2279,-3.2285,-3.229,-3.2292,-3.2291,-3.2294,-3.2288,-3.2296,-3.2285,-3.2296,-3.2287,-3.2289,-3.2289,-3.2289,-3.229,-3.2278,-3.2299,-3.233,-3.2334,-3.2291,-3.2291,-3.2291,0,-3.2255,-3.2268,-3.228,-3.2283,-3.2289,-3.2294,-3.2296,-3.2299,-3.2303,-3.2307,-3.2309,-3.2313,-3.2315,-3.2318,-3.2314,-3.2307,-3.2326,-3.2314,-3.2325,-3.2325,-3.2329,-3.2329,-3.2363,-3.233,-3.233,-3.2329,-3.2329,0,-3.2274,-3.2284,-3.2288,-3.2295,-3.2307,-3.2306,-3.2318,-3.2319,-3.2322,-3.2329,-3.2323,-3.2329,-3.2324,-3.2329,-3.2326,-3.2336,-3.2337,-3.2336,-3.2335,-3.2337,-3.2337,-3.2339,-3.2337,-3.233,-3.233,-3.233,-3.233,0,-3.2291,-3.2294,-3.2307,-3.2314,-3.2315,-3.2324,-3.2329,-3.2336,-3.2336,-3.2345,-3.2347,-3.2347,-3.2354,-3.2351,-3.2356,-3.2354,-3.2368,-3.2364,-3.2368,-3.2368,-3.238,-3.2379,-3.2415,-3.2421,-3.2383,-3.2384,-3.2384,0,-3.2303,-3.2312,-3.2321,-3.2327,-3.2331,-3.234,-3.2346,-3.2345,-3.235,-3.2356,-3.2362,-3.237,-3.2376,-3.2387,-3.2386,-3.2391,-3.2388,-3.2401,-3.2389,-3.2392,-3.239,-3.239,-3.2392,-3.2403,-3.2403,-3.2404,-3.2404,0,-3.2325,-3.2327,-3.2336,-3.2347,-3.2354,-3.2361,-3.2368,-3.2373,-3.2373,-3.2379,-3.2388,-3.2393,-3.2402,-3.2409,-3.2415,-3.2415,-3.241,-3.2408,-3.2411,-3.2414,-3.2416,-3.2417,-3.2376,-3.2407,-3.2407,-3.2407,-3.2406,-3.2406,-3.234,-3.2349,-3.2358,-3.2369,-3.2376,-3.2383,-3.2391,-3.2394,-3.2403,-3.2412,-3.2411,-3.2421,-3.2426,-3.2433,-3.2435,-3.2442,-3.2437,-3.2441,-3.2442,-3.2444,-3.2446,-3.2415,-3.2443,-3.2443,-3.2443,-3.2443,-3.2443,0,-3.2362,-3.2369,-3.238,-3.2392,-3.2401,-3.2399,-3.2407,-3.2414,-3.2425,-3.2431,-3.2438,-3.245,-3.2458,-3.2459,-3.2467,-3.2473,-3.2471,-3.2475,-3.2474,-3.2475,-3.2449,-3.2447,-3.2477,-3.2477,-3.2477,-3.2477,-3.2477,-3.2477,-3.2375,-3.2391,-3.2395,-3.2414,-3.242,-3.2433,-3.2439,-3.2446,-3.2451,-3.2465,-3.2474,-3.2476,-3.248,-3.2489,-3.2496,-3.2496,-3.2499,-3.2505,-3.2504,-3.248,-3.2477,-3.2473,-3.2471,-3.2505,-3.2506,-3.253,-3.253,-3.253]}]]